| time (UTC) | temp F | wind direction | speed MPH | gust MPH | rain 1hr in | rain 24hr in | rain mn in | humidity % | barometer mb |
| 20260507012502 | 59 | 348 | 3.0 | 9.0 | 0.00 | 0.07 | 0.07 | 90 | 1014.5 |
| 20260507012004 | 59 | 358 | 4.0 | 8.0 | 0.00 | 0.07 | 0.07 | 90 | 1014.4 |
| 20260507011512 | 59 | 345 | 3.0 | 10.0 | 0.00 | 0.07 | 0.07 | 90 | 1014.2 |
| 20260507011003 | 59 | 23 | 3.0 | 10.0 | 0.00 | 0.07 | 0.07 | 90 | 1014.1 |
| 20260507010506 | 59 | 34 | 5.0 | 9.0 | 0.00 | 0.07 | 0.07 | 90 | 1014.0 |
| 20260507010006 | 59 | 355 | 5.0 | 10.0 | 0.00 | 0.07 | 0.07 | 89 | 1014.0 |
| 20260507005508 | 59 | 16 | 4.0 | 10.0 | 0.00 | 0.07 | 0.07 | 89 | 1014.0 |
| 20260507005003 | 59 | 25 | 5.0 | 9.0 | 0.00 | 0.07 | 0.07 | 89 | 1013.9 |
| 20260507004511 | 59 | 33 | 4.0 | 9.0 | 0.00 | 0.07 | 0.07 | 89 | 1013.8 |
| 20260507004004 | 59 | 345 | 6.0 | 11.0 | 0.00 | 0.07 | 0.07 | 89 | 1013.9 |
| 20260507003505 | 59 | 23 | 5.0 | 11.0 | 0.00 | 0.07 | 0.07 | 89 | 1013.8 |
| 20260507003019 | 59 | 8 | 4.0 | 9.0 | 0.00 | 0.07 | 0.07 | 89 | 1013.9 |
| 20260507002506 | 59 | 7 | 5.0 | 13.0 | 0.00 | 0.07 | 0.07 | 89 | 1013.7 |
| 20260507002007 | 60 | 347 | 4.0 | 13.0 | 0.00 | 0.07 | 0.07 | 89 | 1013.7 |
| 20260507001521 | 60 | 21 | 5.0 | 10.0 | 0.00 | 0.07 | 0.07 | 89 | 1013.8 |
| 20260507001008 | 60 | 4 | 4.0 | 11.0 | 0.00 | 0.07 | 0.07 | 89 | 1013.7 |
| 20260507000503 | 60 | 344 | 4.0 | 11.0 | 0.00 | 0.07 | 0.07 | 89 | 1013.7 |
| 20260507000015 | 60 | 343 | 6.0 | 13.0 | 0.00 | 0.07 | 0.07 | 88 | 1013.5 |
| 20260506235504 | 60 | 337 | 7.0 | 13.0 | 0.00 | 0.07 | 0.07 | 89 | 1013.4 |
| 20260506235003 | 60 | 3 | 4.0 | 10.0 | 0.00 | 0.07 | 0.07 | 89 | 1013.3 |
| 20260506234508 | 60 | 40 | 4.0 | 14.0 | 0.00 | 0.07 | 0.07 | 89 | 1013.1 |
| 20260506234003 | 60 | 356 | 6.0 | 14.0 | 0.00 | 0.07 | 0.07 | 89 | 1013.3 |
| 20260506233506 | 60 | 49 | 5.0 | 13.0 | 0.00 | 0.07 | 0.07 | 88 | 1013.2 |
| 20260506233012 | 60 | 5 | 4.0 | 13.0 | 0.00 | 0.07 | 0.07 | 89 | 1013.4 |
| 20260506232504 | 60 | 356 | 7.0 | 15.0 | 0.00 | 0.07 | 0.07 | 88 | 1013.4 |
| 20260506232007 | 60 | 6 | 5.0 | 16.0 | 0.00 | 0.07 | 0.07 | 89 | 1012.7 |
| 20260506231516 | 60 | 359 | 7.0 | 16.0 | 0.00 | 0.07 | 0.07 | 89 | 1013.3 |
| 20260506231003 | 60 | 333 | 6.0 | 13.0 | 0.00 | 0.07 | 0.07 | 88 | 1013.3 |
| 20260506230505 | 60 | 309 | 4.0 | 13.0 | 0.00 | 0.07 | 0.07 | 89 | 1013.2 |
| 20260506230015 | 61 | 18 | 6.0 | 11.0 | 0.00 | 0.07 | 0.07 | 87 | 1013.2 |
| 20260506225503 | 61 | 356 | 4.0 | 12.0 | 0.00 | 0.07 | 0.07 | 88 | 1013.1 |
| 20260506225007 | 61 | 23 | 7.0 | 13.0 | 0.00 | 0.07 | 0.07 | 87 | 1012.8 |
| 20260506224515 | 61 | 10 | 6.0 | 13.0 | 0.00 | 0.07 | 0.07 | 88 | 1013.0 |
| 20260506224007 | 61 | 28 | 7.0 | 13.0 | 0.00 | 0.07 | 0.07 | 87 | 1012.9 |
| 20260506223504 | 61 | 5 | 5.0 | 14.0 | 0.00 | 0.07 | 0.07 | 87 | 1013.0 |
| 20260506223010 | 61 | 344 | 5.0 | 14.0 | 0.00 | 0.07 | 0.07 | 87 | 1012.8 |
| 20260506222505 | 61 | 358 | 7.0 | 16.0 | 0.00 | 0.07 | 0.07 | 87 | 1013.0 |
| 20260506222008 | 61 | 340 | 7.0 | 16.0 | 0.00 | 0.07 | 0.07 | 87 | 1013.1 |
| 20260506221514 | 61 | 13 | 6.0 | 14.0 | 0.00 | 0.07 | 0.07 | 87 | 1013.0 |
| 20260506221006 | 61 | 340 | 6.0 | 16.0 | 0.00 | 0.07 | 0.07 | 86 | 1013.0 |
| 20260506220507 | 61 | 8 | 6.0 | 16.0 | 0.00 | 0.07 | 0.07 | 87 | 1013.1 |
| 20260506220016 | 62 | 345 | 6.0 | 14.0 | 0.00 | 0.07 | 0.07 | 86 | 1013.0 |
| 20260506215507 | 62 | 305 | 6.0 | 17.0 | 0.00 | 0.07 | 0.07 | 87 | 1012.8 |
| 20260506215006 | 62 | 15 | 8.0 | 17.0 | 0.00 | 0.07 | 0.07 | 86 | 1012.9 |
| 20260506214518 | 63 | 17 | 10.0 | 16.0 | 0.00 | 0.07 | 0.07 | 84 | 1012.8 |
| 20260506214010 | 63 | 24 | 8.0 | 14.0 | 0.00 | 0.07 | 0.07 | 83 | 1012.9 |
| 20260506213506 | 64 | 359 | 8.0 | 14.0 | 0.00 | 0.07 | 0.07 | 82 | 1012.7 |
| 20260506213015 | 65 | 37 | 6.0 | 18.0 | 0.00 | 0.07 | 0.07 | 82 | 1012.8 |
| 20260506212508 | 65 | 352 | 7.0 | 18.0 | 0.00 | 0.07 | 0.07 | 82 | 1012.9 |
| 20260506212015 | 65 | 356 | 6.0 | 14.0 | 0.00 | 0.07 | 0.07 | 82 | 1012.7 |
| 20260506211509 | 65 | 338 | 6.0 | 14.0 | 0.00 | 0.07 | 0.07 | 82 | 1012.8 |
| 20260506211007 | 66 | 347 | 6.0 | 14.0 | 0.00 | 0.07 | 0.07 | 81 | 1012.9 |
| 20260506210506 | 66 | 13 | 6.0 | 13.0 | 0.00 | 0.07 | 0.07 | 81 | 1013.1 |
| 20260506210021 | 66 | 336 | 5.0 | 13.0 | 0.00 | 0.07 | 0.07 | 81 | 1012.9 |
| 20260506205511 | 66 | 324 | 7.0 | 14.0 | 0.00 | 0.07 | 0.07 | 81 | 1012.8 |
| 20260506205006 | 66 | 1 | 6.0 | 14.0 | 0.00 | 0.07 | 0.07 | 81 | 1012.9 |
| 20260506204516 | 66 | 20 | 6.0 | 10.0 | 0.00 | 0.07 | 0.07 | 81 | 1012.8 |
| 20260506204005 | 67 | 316 | 6.0 | 15.0 | 0.00 | 0.07 | 0.07 | 80 | 1012.9 |
| 20260506203508 | 66 | 347 | 10.0 | 15.0 | 0.00 | 0.07 | 0.07 | 79 | 1013.0 |
| 20260506203025 | 67 | 328 | 6.0 | 13.0 | 0.00 | 0.07 | 0.07 | 79 | 1012.9 |
| 20260506202506 | 68 | 16 | 8.0 | 13.0 | 0.00 | 0.07 | 0.07 | 77 | 1012.9 |
| 20260506202009 | 70 | 328 | 6.0 | 15.0 | 0.00 | 0.07 | 0.07 | 76 | 1012.9 |
| 20260506201518 | 70 | 344 | 7.0 | 15.0 | 0.01 | 0.07 | 0.07 | 79 | 1013.0 |
| 20260506201009 | 71 | 333 | 8.0 | 15.0 | 0.01 | 0.07 | 0.07 | 75 | 1013.1 |
| 20260506200511 | 72 | 320 | 7.0 | 15.0 | 0.01 | 0.07 | 0.07 | 74 | 1013.1 |
| 20260506200013 | 72 | 348 | 6.0 | 12.0 | 0.01 | 0.07 | 0.07 | 77 | 1013.0 |
| 20260506195507 | 73 | 332 | 6.0 | 12.0 | 0.01 | 0.07 | 0.07 | 77 | 1013.0 |
| 20260506195006 | 73 | 36 | 8.0 | 12.0 | 0.01 | 0.07 | 0.07 | 76 | 1013.0 |
| 20260506194518 | 73 | 44 | 6.0 | 12.0 | 0.01 | 0.07 | 0.07 | 79 | 1013.0 |
| 20260506194009 | 72 | 336 | 6.0 | 13.0 | 0.01 | 0.07 | 0.07 | 79 | 1012.9 |
| 20260506193507 | 71 | 7 | 6.0 | 13.0 | 0.01 | 0.07 | 0.07 | 81 | 1013.1 |
| 20260506193018 | 72 | 328 | 5.0 | 14.0 | 0.01 | 0.07 | 0.07 | 81 | 1013.1 |
| 20260506192507 | 71 | 329 | 7.0 | 14.0 | 0.01 | 0.07 | 0.07 | 80 | 1013.1 |
| 20260506192008 | 72 | 306 | 5.0 | 13.0 | 0.01 | 0.07 | 0.07 | 82 | 1013.2 |
| 20260506191519 | 72 | 330 | 7.0 | 13.0 | 0.00 | 0.06 | 0.06 | 80 | 1013.2 |
| 20260506191007 | 73 | 312 | 5.0 | 13.0 | 0.00 | 0.06 | 0.06 | 82 | 1013.2 |
| 20260506190507 | 74 | 330 | 4.0 | 11.0 | 0.00 | 0.06 | 0.06 | 81 | 1013.3 |
| 20260506190019 | 75 | 339 | 3.0 | 8.0 | 0.00 | 0.06 | 0.06 | 82 | 1013.2 |
| 20260506185507 | 75 | 338 | 3.0 | 9.0 | 0.00 | 0.06 | 0.06 | 81 | 1013.2 |
| 20260506185006 | 76 | 346 | 4.0 | 9.0 | 0.00 | 0.06 | 0.06 | 80 | 1013.2 |
| 20260506184516 | 76 | 42 | 4.0 | 8.0 | 0.00 | 0.06 | 0.06 | 81 | 1013.0 |
| 20260506184006 | 75 | 42 | 3.0 | 8.0 | 0.00 | 0.06 | 0.06 | 82 | 1013.1 |
| 20260506183508 | 74 | 10 | 4.0 | 8.0 | 0.00 | 0.06 | 0.06 | 83 | 1013.1 |
| 20260506183021 | 74 | 344 | 4.0 | 9.0 | 0.00 | 0.06 | 0.06 | 84 | 1013.3 |
| 20260506182507 | 73 | 345 | 3.0 | 9.0 | 0.00 | 0.06 | 0.06 | 85 | 1013.3 |
| 20260506182007 | 73 | 345 | 5.0 | 9.0 | 0.00 | 0.06 | 0.06 | 86 | 1013.5 |
| 20260506181522 | 74 | 360 | 4.0 | 8.0 | 0.00 | 0.06 | 0.06 | 85 | 1013.3 |
| 20260506181008 | 74 | 331 | 1.0 | 5.0 | 0.00 | 0.06 | 0.06 | 87 | 1013.3 |
| 20260506180508 | 73 | 340 | 3.0 | 5.0 | 0.00 | 0.06 | 0.06 | 88 | 1013.3 |
| 20260506180025 | 72 | 8 | 1.0 | 6.0 | 0.00 | 0.06 | 0.06 | 91 | 1013.3 |
| 20260506175507 | 72 | 14 | 2.0 | 6.0 | 0.00 | 0.06 | 0.06 | 89 | 1013.5 |
| 20260506175002 | 71 | 25 | 1.0 | 7.0 | 0.00 | 0.06 | 0.06 | 90 | 1013.5 |
| 20260506174509 | 70 | 312 | 3.0 | 7.0 | 0.00 | 0.06 | 0.06 | 93 | 1013.4 |
| 20260506174006 | 69 | 340 | 2.0 | 3.0 | 0.00 | 0.06 | 0.06 | 92 | 1013.5 |
| 20260506173505 | 69 | 337 | 0.0 | 4.0 | 0.00 | 0.06 | 0.06 | 91 | 1013.5 |
| 20260506173015 | 69 | 356 | 2.0 | 6.0 | 0.00 | 0.06 | 0.06 | 92 | 1013.6 |
| 20260506172507 | 69 | 17 | 3.0 | 6.0 | 0.00 | 0.06 | 0.06 | 92 | 1013.4 |
| 20260506172009 | 69 | 318 | 2.0 | 4.0 | 0.00 | 0.06 | 0.06 | 93 | 1013.5 |
| 20260506171511 | 68 | 13 | 1.0 | 3.0 | 0.00 | 0.06 | 0.06 | 92 | 1013.3 |
| 20260506171003 | 68 | 14 | 1.0 | 3.0 | 0.00 | 0.06 | 0.06 | 92 | 1013.5 |
| 20260506170505 | 68 | 14 | 1.0 | 3.0 | 0.00 | 0.06 | 0.06 | 92 | 1013.3 |
| 20260506170004 | 68 | 323 | 2.0 | 3.0 | 0.00 | 0.06 | 0.06 | 92 | 1013.2 |
| 20260506165504 | 68 | 13 | 0.0 | 3.0 | 0.00 | 0.06 | 0.06 | 93 | 1013.1 |
| 20260506165003 | 67 | 13 | 0.0 | 5.0 | 0.00 | 0.06 | 0.06 | 94 | 1013.1 |
| 20260506164512 | 67 | 27 | 2.0 | 5.0 | 0.00 | 0.06 | 0.06 | 95 | 1013.3 |
| 20260506164009 | 67 | 333 | 1.0 | 3.0 | 0.01 | 0.06 | 0.06 | 95 | 1013.2 |
| 20260506163502 | 66 | 14 | 1.0 | 3.0 | 0.03 | 0.06 | 0.06 | 95 | 1013.1 |
| 20260506163012 | 66 | 6 | 0.0 | 5.0 | 0.03 | 0.06 | 0.06 | 95 | 1013.2 |
| 20260506162507 | 65 | 1 | 1.0 | 5.0 | 0.03 | 0.06 | 0.06 | 95 | 1013.2 |
| 20260506162013 | 65 | 21 | 3.0 | 6.0 | 0.03 | 0.06 | 0.06 | 95 | 1013.2 |
| 20260506161516 | 65 | 11 | 4.0 | 6.0 | 0.03 | 0.06 | 0.06 | 95 | 1013.1 |
| 20260506161007 | 64 | 341 | 4.0 | 8.0 | 0.03 | 0.06 | 0.06 | 95 | 1013.2 |
| 20260506160509 | 64 | 308 | 5.0 | 8.0 | 0.03 | 0.06 | 0.06 | 94 | 1013.2 |
| 20260506160003 | 64 | 21 | 4.0 | 10.0 | 0.03 | 0.06 | 0.06 | 94 | 1013.3 |
| 20260506155503 | 64 | 356 | 4.0 | 10.0 | 0.03 | 0.06 | 0.06 | 94 | 1013.3 |
| 20260506155004 | 65 | 358 | 5.0 | 11.0 | 0.03 | 0.06 | 0.06 | 94 | 1013.2 |
| 20260506154506 | 65 | 342 | 5.0 | 11.0 | 0.03 | 0.06 | 0.06 | 93 | 1013.1 |
| 20260506154004 | 66 | 319 | 5.0 | 11.0 | 0.02 | 0.05 | 0.05 | 92 | 1013.2 |
| 20260506153503 | 67 | 311 | 4.0 | 14.0 | 0.00 | 0.03 | 0.03 | 90 | 1013.2 |
| 20260506153009 | 69 | 341 | 6.0 | 14.0 | 0.00 | 0.03 | 0.03 | 89 | 1013.2 |
| 20260506152502 | 72 | 335 | 2.0 | 4.0 | 0.00 | 0.03 | 0.03 | 94 | 1013.0 |
| 20260506152005 | 72 | 25 | 0.0 | 2.0 | 0.00 | 0.03 | 0.03 | 95 | 1012.9 |
| 20260506151526 | 72 | 131 | 0.0 | 1.0 | 0.00 | 0.03 | 0.03 | 95 | 1012.8 |
| 20260506151009 | 72 | 131 | 0.0 | 2.0 | 0.01 | 0.03 | 0.03 | 95 | 1012.7 |
| 20260506150507 | 72 | 136 | 1.0 | 2.0 | 0.01 | 0.03 | 0.03 | 95 | 1012.5 |
| 20260506150018 | 72 | 180 | 1.0 | 2.0 | 0.01 | 0.03 | 0.03 | 95 | 1012.4 |
| 20260506145510 | 72 | 158 | 0.0 | 1.0 | 0.01 | 0.03 | 0.03 | 96 | 1012.4 |
| 20260506145010 | 72 | 158 | 0.0 | 2.0 | 0.02 | 0.03 | 0.03 | 96 | 1012.3 |
| 20260506144502 | 71 | 130 | 0.0 | 2.0 | 0.02 | 0.03 | 0.03 | 96 | 1012.3 |
| 20260506144006 | 71 | 146 | 0.0 | 3.0 | 0.02 | 0.03 | 0.03 | 96 | 1012.3 |
| 20260506143504 | 71 | 113 | 2.0 | 3.0 | 0.02 | 0.03 | 0.03 | 96 | 1012.3 |
| 20260506143008 | 71 | 106 | 2.0 | 2.0 | 0.02 | 0.03 | 0.03 | 96 | 1012.3 |
| 20260506142505 | 71 | 126 | 0.0 | 2.0 | 0.02 | 0.03 | 0.03 | 96 | 1012.3 |
| 20260506142005 | 71 | 149 | 0.0 | 3.0 | 0.02 | 0.03 | 0.03 | 96 | 1012.3 |
| 20260506141511 | 71 | 112 | 1.0 | 3.0 | 0.03 | 0.03 | 0.03 | 96 | 1012.2 |
| 20260506141006 | 71 | 99 | 0.0 | 2.0 | 0.02 | 0.02 | 0.02 | 96 | 1012.3 |
| 20260506140504 | 71 | 102 | 0.0 | 1.0 | 0.02 | 0.02 | 0.02 | 96 | 1012.3 |
| 20260506140022 | 71 | 127 | 0.0 | 1.0 | 0.02 | 0.02 | 0.02 | 96 | 1012.3 |
| 20260506135507 | 71 | 127 | 0.0 | 2.0 | 0.02 | 0.02 | 0.02 | 96 | 1012.1 |
| 20260506135006 | 70 | 127 | 0.0 | 2.0 | 0.01 | 0.01 | 0.01 | 96 | 1012.1 |
| 20260506134522 | 71 | 6 | 0.0 | 2.0 | 0.01 | 0.01 | 0.01 | 96 | 1012.0 |
| 20260506134010 | 70 | 6 | 0.0 | 2.0 | 0.01 | 0.01 | 0.01 | 96 | 1011.8 |
| 20260506133507 | 70 | 134 | 0.0 | 2.0 | 0.01 | 0.01 | 0.01 | 96 | 1011.3 |
| 20260506133004 | 70 | 95 | 1.0 | 2.0 | 0.01 | 0.01 | 0.01 | 96 | 1010.9 |
| 20260506132501 | 70 | 124 | 0.0 | 4.0 | 0.01 | 0.01 | 0.01 | 96 | 1010.7 |
| 20260506132003 | 70 | 125 | 1.0 | 4.0 | 0.01 | 0.01 | 0.01 | 96 | 1010.7 |
| 20260506131516 | 70 | 109 | 1.0 | 2.0 | 0.00 | 0.00 | 0.00 | 96 | 1010.8 |
| 20260506131006 | 70 | 158 | 0.0 | 0.0 | 0.00 | 0.00 | 0.00 | 96 | 1010.7 |
| 20260506130503 | 70 | 158 | 0.0 | 0.0 | 0.00 | 0.00 | 0.00 | 96 | 1010.7 |
| 20260506130016 | 70 | 158 | 0.0 | 1.0 | 0.00 | 0.00 | 0.00 | 96 | 1010.7 |
| 20260506125505 | 70 | 158 | 0.0 | 2.0 | 0.00 | 0.00 | 0.00 | 96 | 1010.7 |
| 20260506125007 | 70 | 158 | 0.0 | 2.0 | 0.00 | 0.00 | 0.00 | 96 | 1010.7 |
| 20260506124519 | 70 | 238 | 0.0 | 2.0 | 0.00 | 0.00 | 0.00 | 96 | 1010.6 |
| 20260506124007 | 70 | 210 | 0.0 | 2.0 | 0.00 | 0.00 | 0.00 | 96 | 1010.6 |
| 20260506123507 | 70 | 157 | 1.0 | 3.0 | 0.00 | 0.00 | 0.00 | 96 | 1010.4 |
| 20260506123023 | 70 | 110 | 1.0 | 3.0 | 0.00 | 0.00 | 0.00 | 96 | 1010.3 |
| 20260506122507 | 70 | 135 | 1.0 | 4.0 | 0.00 | 0.00 | 0.00 | 96 | 1010.3 |
| 20260506122011 | 70 | 174 | 1.0 | 4.0 | 0.00 | 0.00 | 0.00 | 96 | 1010.3 |
| 20260506121504 | 70 | 155 | 0.0 | 3.0 | 0.00 | 0.00 | 0.00 | 96 | 1010.2 |
| 20260506121004 | 70 | 191 | 0.0 | 4.0 | 0.00 | 0.00 | 0.00 | 96 | 1010.2 |
| 20260506120503 | 70 | 154 | 1.0 | 4.0 | 0.00 | 0.00 | 0.00 | 96 | 1010.2 |
| 20260506120018 | 70 | 146 | 0.0 | 3.0 | 0.00 | 0.00 | 0.00 | 96 | 1010.2 |
| 20260506115503 | 70 | 146 | 0.0 | 3.0 | 0.00 | 0.00 | 0.00 | 96 | 1010.2 |
| 20260506115006 | 70 | 140 | 1.0 | 3.0 | 0.00 | 0.00 | 0.00 | 96 | 1010.2 |
| 20260506114515 | 70 | 184 | 0.0 | 3.0 | 0.00 | 0.00 | 0.00 | 95 | 1010.3 |
| 20260506114007 | 70 | 188 | 0.0 | 3.0 | 0.00 | 0.00 | 0.00 | 95 | 1010.4 |
| 20260506113508 | 70 | 148 | 1.0 | 2.0 | 0.00 | 0.00 | 0.00 | 95 | 1010.4 |
| 20260506113024 | 70 | 244 | 0.0 | 4.0 | 0.00 | 0.00 | 0.00 | 95 | 1010.4 |
| 20260506112509 | 70 | 165 | 1.0 | 4.0 | 0.00 | 0.00 | 0.00 | 95 | 1010.3 |
| 20260506112008 | 70 | 226 | 1.0 | 4.0 | 0.00 | 0.00 | 0.00 | 95 | 1010.3 |
| 20260506111526 | 70 | 160 | 1.0 | 3.0 | 0.00 | 0.00 | 0.00 | 95 | 1010.4 |
| 20260506111007 | 70 | 169 | 1.0 | 4.0 | 0.00 | 0.00 | 0.00 | 95 | 1010.4 |
| 20260506110513 | 70 | 162 | 1.0 | 5.0 | 0.00 | 0.00 | 0.00 | 95 | 1010.4 |
| 20260506110012 | 70 | 167 | 2.0 | 6.0 | 0.00 | 0.00 | 0.00 | 95 | 1010.2 |
| 20260506105503 | 70 | 205 | 1.0 | 7.0 | 0.00 | 0.00 | 0.00 | 95 | 1010.2 |
| 20260506105007 | 70 | 160 | 3.0 | 7.0 | 0.00 | 0.00 | 0.00 | 95 | 1010.4 |
| 20260506104512 | 70 | 238 | 2.0 | 6.0 | 0.00 | 0.00 | 0.00 | 95 | 1010.5 |
| 20260506104007 | 70 | 244 | 0.0 | 5.0 | 0.00 | 0.00 | 0.00 | 95 | 1010.7 |
| 20260506103506 | 70 | 178 | 2.0 | 5.0 | 0.00 | 0.00 | 0.00 | 95 | 1010.7 |
| 20260506103018 | 70 | 199 | 2.0 | 5.0 | 0.00 | 0.00 | 0.00 | 95 | 1010.6 |
| 20260506102508 | 70 | 238 | 1.0 | 5.0 | 0.00 | 0.00 | 0.00 | 95 | 1010.6 |
| 20260506102009 | 70 | 170 | 1.0 | 4.0 | 0.00 | 0.00 | 0.00 | 95 | 1010.6 |
| 20260506101528 | 70 | 295 | 0.0 | 6.0 | 0.00 | 0.00 | 0.00 | 95 | 1010.5 |
| 20260506101010 | 70 | 146 | 2.0 | 6.0 | 0.00 | 0.00 | 0.00 | 95 | 1010.4 |
| 20260506100507 | 70 | 133 | 1.0 | 6.0 | 0.00 | 0.00 | 0.00 | 95 | 1010.3 |
| 20260506100031 | 71 | 240 | 1.0 | 6.0 | 0.00 | 0.00 | 0.00 | 95 | 1010.2 |
| 20260506095507 | 71 | 211 | 1.0 | 5.0 | 0.00 | 0.00 | 0.00 | 95 | 1010.2 |
| 20260506095011 | 71 | 234 | 0.0 | 4.0 | 0.00 | 0.00 | 0.00 | 95 | 1010.2 |
| 20260506094508 | 71 | 247 | 2.0 | 6.0 | 0.00 | 0.00 | 0.00 | 95 | 1010.2 |
| 20260506094003 | 71 | 157 | 1.0 | 6.0 | 0.00 | 0.00 | 0.00 | 95 | 1010.3 |
| 20260506093507 | 71 | 231 | 1.0 | 9.0 | 0.00 | 0.00 | 0.00 | 95 | 1010.2 |
| 20260506093018 | 71 | 212 | 2.0 | 9.0 | 0.00 | 0.00 | 0.00 | 95 | 1010.2 |
| 20260506092509 | 71 | 103 | 3.0 | 9.0 | 0.00 | 0.00 | 0.00 | 95 | 1010.2 |
| 20260506092007 | 71 | 122 | 1.0 | 5.0 | 0.00 | 0.00 | 0.00 | 95 | 1010.1 |
| 20260506091519 | 71 | 141 | 1.0 | 5.0 | 0.00 | 0.00 | 0.00 | 95 | 1010.1 |
| 20260506091007 | 71 | 246 | 1.0 | 6.0 | 0.00 | 0.00 | 0.00 | 94 | 1010.1 |
| 20260506090506 | 71 | 110 | 2.0 | 7.0 | 0.00 | 0.00 | 0.00 | 94 | 1010.1 |
| 20260506090021 | 71 | 195 | 2.0 | 7.0 | 0.00 | 0.00 | 0.00 | 94 | 1010.0 |
| 20260506085507 | 71 | 110 | 2.0 | 8.0 | 0.00 | 0.00 | 0.00 | 94 | 1009.9 |
| 20260506085007 | 71 | 145 | 4.0 | 8.0 | 0.00 | 0.00 | 0.00 | 94 | 1009.8 |
| 20260506084535 | 71 | 41 | 3.0 | 8.0 | 0.00 | 0.00 | 0.00 | 94 | 1009.7 |
| 20260506084010 | 71 | 120 | 3.0 | 6.0 | 0.00 | 0.00 | 0.00 | 94 | 1009.7 |
| 20260506083514 | 71 | 155 | 1.0 | 6.0 | 0.00 | 0.00 | 0.00 | 94 | 1009.8 |
| 20260506083013 | 71 | 164 | 3.0 | 6.0 | 0.00 | 0.00 | 0.00 | 94 | 1009.8 |
| 20260506082505 | 71 | 175 | 3.0 | 8.0 | 0.00 | 0.00 | 0.00 | 93 | 1009.7 |
| 20260506082003 | 71 | 223 | 3.0 | 8.0 | 0.00 | 0.00 | 0.00 | 93 | 1009.7 |
| 20260506081517 | 71 | 166 | 2.0 | 7.0 | 0.00 | 0.00 | 0.00 | 93 | 1009.8 |
| 20260506081010 | 71 | 188 | 2.0 | 7.0 | 0.00 | 0.00 | 0.00 | 93 | 1009.8 |
| 20260506080508 | 72 | 143 | 2.0 | 6.0 | 0.00 | 0.00 | 0.00 | 93 | 1009.9 |
| 20260506073511 | 72 | 50 | 3.0 | 7.0 | 0.00 | 0.00 | 0.00 | 92 | 1010.0 |
| 20260506073026 | 72 | 111 | 3.0 | 9.0 | 0.00 | 0.00 | 0.00 | 92 | 1010.1 |
| 20260506072512 | 72 | 154 | 3.0 | 9.0 | 0.00 | 0.00 | 0.00 | 92 | 1010.2 |
| 20260506072012 | 72 | 145 | 3.0 | 8.0 | 0.00 | 0.00 | 0.00 | 92 | 1010.2 |
| 20260506071514 | 72 | 120 | 2.0 | 8.0 | 0.00 | 0.00 | 0.00 | 92 | 1010.2 |
| 20260506071007 | 72 | 65 | 3.0 | 9.0 | 0.00 | 0.00 | 0.00 | 92 | 1010.2 |
| 20260506070506 | 72 | 145 | 3.0 | 9.0 | 0.00 | 0.00 | 0.00 | 92 | 1010.2 |
| 20260506062509 | 73 | 174 | 2.0 | 9.0 | 0.00 | 0.00 | 0.00 | 92 | 1010.5 |
| 20260506062012 | 73 | 221 | 2.0 | 9.0 | 0.00 | 0.00 | 0.00 | 92 | 1010.4 |
| 20260506061529 | 73 | 185 | 3.0 | 7.0 | 0.00 | 0.00 | 0.00 | 92 | 1010.4 |
| 20260506061011 | 73 | 131 | 3.0 | 6.0 | 0.00 | 0.00 | 0.00 | 92 | 1010.3 |
| 20260506060510 | 73 | 162 | 2.0 | 6.0 | 0.00 | 0.00 | 0.00 | 92 | 1010.3 |
| 20260506051011 | 73 | 156 | 2.0 | 6.0 | 0.00 | 0.00 | 0.00 | 91 | 1010.3 |
| 20260506050515 | 73 | 139 | 2.0 | 6.0 | 0.00 | 0.00 | 0.00 | 91 | 1010.4 |
| 20260506045013 | 73 | 121 | 0.0 | 3.0 | 0.00 | 0.00 | 0.00 | 90 | 1010.5 |
| 20260506044519 | 73 | 252 | 0.0 | 2.0 | 0.00 | 0.00 | 0.00 | 90 | 1010.5 |
| 20260506044007 | 72 | 87 | 0.0 | 2.0 | 0.00 | 0.00 | 0.00 | 90 | 1010.6 |
| 20260506043509 | 72 | 85 | 0.0 | 2.0 | 0.00 | 0.00 | 0.00 | 90 | 1010.6 |
| 20260506043024 | 72 | 142 | 0.0 | 2.0 | 0.00 | 0.00 | 0.00 | 90 | 1010.5 |
| 20260506042506 | 72 | 185 | 0.0 | 2.0 | 0.00 | 0.00 | 0.00 | 89 | 1010.5 |
| 20260506042010 | 72 | 94 | 0.0 | 2.0 | 0.00 | 0.00 | 0.00 | 89 | 1010.5 |
| 20260506041525 | 73 | 108 | 0.0 | 2.0 | 0.00 | 0.00 | 0.00 | 89 | 1010.3 |
| 20260506041009 | 73 | 122 | 0.0 | 2.0 | 0.00 | 0.00 | 0.00 | 88 | 1010.3 |
| 20260506040509 | 73 | 136 | 0.0 | 2.0 | 0.00 | 0.00 | 0.00 | 88 | 1010.2 |
| 20260506040036 | 73 | 117 | 0.0 | 2.0 | 0.00 | 0.00 | 0.00 | 87 | 1010.1 |
| 20260506035509 | 73 | 147 | 0.0 | 2.0 | 0.00 | 0.00 | 0.00 | 87 | 1010.2 |
| 20260506035010 | 73 | 181 | 0.0 | 2.0 | 0.00 | 0.00 | 0.00 | 87 | 1010.2 |
| 20260506034529 | 73 | 143 | 0.0 | 2.0 | 0.00 | 0.00 | 0.00 | 87 | 1010.1 |
| 20260506034011 | 73 | 129 | 0.0 | 2.0 | 0.00 | 0.00 | 0.00 | 86 | 1010.1 |
| 20260506033509 | 73 | 111 | 0.0 | 1.0 | 0.00 | 0.00 | 0.00 | 85 | 1010.1 |
| 20260506033020 | 74 | 111 | 0.0 | 2.0 | 0.00 | 0.00 | 0.00 | 85 | 1010.0 |
| 20260506032505 | 74 | 110 | 0.0 | 2.0 | 0.00 | 0.00 | 0.00 | 85 | 1009.9 |
| 20260506032007 | 74 | 113 | 0.0 | 4.0 | 0.00 | 0.00 | 0.00 | 84 | 1009.8 |
| 20260506031524 | 74 | 120 | 0.0 | 4.0 | 0.00 | 0.00 | 0.00 | 84 | 1009.9 |
| 20260506031007 | 74 | 116 | 0.0 | 1.0 | 0.00 | 0.00 | 0.00 | 84 | 1009.7 |
| 20260506030513 | 74 | 111 | 0.0 | 1.0 | 0.00 | 0.00 | 0.00 | 83 | 1009.7 |
| 20260506030026 | 74 | 85 | 0.0 | 1.0 | 0.00 | 0.00 | 0.00 | 83 | 1009.7 |
| 20260506025506 | 74 | 56 | 0.0 | 1.0 | 0.00 | 0.00 | 0.00 | 82 | 1009.6 |
| 20260506025010 | 75 | 56 | 0.0 | 2.0 | 0.00 | 0.00 | 0.00 | 82 | 1009.4 |
| 20260506024530 | 75 | 128 | 1.0 | 2.0 | 0.00 | 0.00 | 0.00 | 82 | 1009.4 |
| 20260506024011 | 75 | 142 | 0.0 | 2.0 | 0.00 | 0.00 | 0.00 | 81 | 1009.4 |
| 20260506023508 | 75 | 123 | 0.0 | 1.0 | 0.00 | 0.00 | 0.00 | 81 | 1009.4 |
| 20260506023031 | 75 | 275 | 0.0 | 1.0 | 0.00 | 0.00 | 0.00 | 80 | 1009.3 |
| 20260506022509 | 76 | 110 | 0.0 | 2.0 | 0.00 | 0.00 | 0.00 | 80 | 1009.1 |
| 20260506022012 | 76 | 147 | 0.0 | 3.0 | 0.00 | 0.00 | 0.00 | 80 | 1009.0 |
| 20260506021531 | 76 | 140 | 1.0 | 3.0 | 0.00 | 0.00 | 0.00 | 80 | 1009.0 |
| 20260506021008 | 76 | 143 | 0.0 | 2.0 | 0.00 | 0.00 | 0.00 | 80 | 1008.9 |
| 20260506020507 | 75 | 172 | 1.0 | 2.0 | 0.00 | 0.00 | 0.00 | 80 | 1008.8 |
| 20260506020031 | 75 | 115 | 0.0 | 2.0 | 0.00 | 0.00 | 0.00 | 79 | 1008.7 |
| 20260506015510 | 76 | 199 | 0.0 | 2.0 | 0.00 | 0.00 | 0.00 | 79 | 1008.5 |
| 20260506015014 | 76 | 97 | 0.0 | 1.0 | 0.00 | 0.00 | 0.00 | 79 | 1008.5 |
| 20260506014526 | 76 | 223 | 0.0 | 3.0 | 0.00 | 0.00 | 0.00 | 78 | 1008.3 |
| 20260506014009 | 76 | 209 | 1.0 | 3.0 | 0.00 | 0.00 | 0.00 | 78 | 1008.1 |
| 20260506013512 | 76 | 222 | 1.0 | 3.0 | 0.00 | 0.00 | 0.00 | 78 | 1008.2 |
| 20260506013028 | 77 | 125 | 0.0 | 3.0 | 0.00 | 0.00 | 0.00 | 77 | 1008.1 |